Regional Weather Roundup
Issued by NWS

Home | Current Version | Previous Version | Graphics & Text | Print | Product List | Glossary On
Versions: 1 2 3 4 5 6 7 8 9 10 11 12 13 14 15 16 17 18 19 20 21 22 23 24 25 26 27 28 29 30 31 32 33 34 35 36 37 38 39 40 41 42 43 44 45 46 47 48 49 50
000
ASUS43 KIND 271059
RWRIN

WEATHER ROUNDUP FOR INDIANA
NATIONAL WEATHER SERVICE INDIANAPOLIS IN
700 AM EDT WED JUL 27 2016

NOTE: "FAIR" INDICATES FEW OR NO CLOUDS BELOW 12,000 FEET WITH NO
SIGNIFICANT WEATHER AND/OR OBSTRUCTIONS TO VISIBILITY.

* - STATION DOES NOT REPORT WEATHER SUCH AS PRECIPITATION OR FOG.

+ - STATION NOT QUALITY CONTROLLED BY THE NATIONAL WEATHER SERVICE.
    USE DATA WITH CAUTION...ESPECIALLY DEWPOINT AND RELATIVE
    HUMIDITY OBSERVATIONS.

INZ001>003-010>013-019-020-271200-
NORTHWEST INDIANA

CITY           SKY/WX    TMP DP  RH WIND       PRES   REMARKS
GARY /AIRPORT/ PTCLDY    66  66 100 CALM      30.04R
KNOX *+        MOCLDY    61  61 100 CALM      30.04R
MONTICELLO +   CLEAR     65  61  87 CALM      30.03R
RENSSELAER +   CLEAR     63  63 100 CALM      30.04R FOG

$$

LMZ046-743>745-271200-
SOUTHERN LAKE MICHIGAN

STATION/POSITION TIME  TEMP    WIND        PRES    WAVE
                       AIR SEA DIR/SP/G            HT
                 (UTC) (F)     (DEG/KT/KT) (MB)    (FT)
BURNS HARBOR     1002   71     190/  6/  8 1016.9R
MICHIGAN CITY    1000   71     170/  4/  4   N/A
5NW MICH CITY    1000   74 76  210/  4/  4   N/A     0

$$

INZ004-005-014>016-021>024-271200-
NORTH CENTRAL INDIANA

CITY           SKY/WX    TMP DP  RH WIND       PRES   REMARKS
ELKHART        PTCLDY    63  63 100 CALM      30.05
GOSHEN         PTCLDY    62  59  90 CALM      30.04R
SOUTH BEND     PTCLDY    64  62  93 CALM      30.04S

$$

INZ006>009-017-018-025>027-271200-
NORTHEAST INDIANA

CITY           SKY/WX    TMP DP  RH WIND       PRES   REMARKS
ANGOLA *+      CLOUDY    63  52  67 CALM      30.04R VSB 1/4
FORT WAYNE     PTCLDY    64  61  90 CALM      30.04R

$$

INZ028-029-035-036-043>045-051>053-271200-
WEST CENTRAL INDIANA

CITY           SKY/WX    TMP DP  RH WIND       PRES   REMARKS
CRAWFORDSVL +  CLEAR     61  61 100 CALM      30.04R FOG
LAFAYETTE      PTCLDY    63  63 100 CALM      30.03R FOG
TERRE HAUTE    PTCLDY    67  65  93 N3        30.03R FOG

$$

INZ030>032-037>040-046>048-054>057-064-065-271200-
CENTRAL INDIANA

CITY           SKY/WX    TMP DP  RH WIND       PRES   REMARKS
COLUMBUS       PTCLDY    68  68 100 CALM      30.02
INDIANAPOLIS   MOCLDY    70  66  87 N5        30.04R
-EAGLE CREEK   MOCLDY    70  67  90 N5        30.03R
KOKOMO *+      CLEAR     61  55  82 CALM      30.05R
SHELBYVILLE    PTCLDY    68  64  87 CALM      30.02R FOG

$$

INZ033-034-041-042-049-050-058-059-271200-
EAST CENTRAL INDIANA

CITY           SKY/WX    TMP DP  RH WIND       PRES   REMARKS
MUNCIE         MOCLDY    66  63  90 CALM      30.04R

$$

INZ060-061-067>069-081>083-085>088-271200-
SOUTHWEST INDIANA

CITY           SKY/WX    TMP DP  RH WIND       PRES   REMARKS
EVANSVILLE     PTCLDY    75  73  93 N3        30.00R
HUNTINGBURG *+ PTCLDY    72  68  88 CALM      30.00R

$$

INZ062-063-066-070>080-084-089>092-271200-
SOUTH CENTRAL AND SOUTHEAST INDIANA

CITY           SKY/WX    TMP DP  RH WIND       PRES   REMARKS
BLOOMINGTON    CLOUDY    71  68  90 N3        30.02R
MADISON *+     CLOUDY    72  72 100 CALM      30.03S VSB<1/4

$$





USA.gov is the U.S. government's official web portal to all federal, state and local government web resources and services.